Regional Weather Roundup
Issued by NWS

Home | Current Version | Previous Version | Text Only | Print | Product List | Glossary Off
Versions: 1 2 3 4 5 6 7 8 9 10 11 12 13 14 15 16 17 18 19 20 21 22 23 24 25 26 27 28 29 30 31 32 33 34 35 36 37 38 39 40 41 42 43 44 45 46 47 48 49 50

000
ASUS44 KMEG 260100
RWRTN
TENNESSEE HOURLY STATE WEATHER ROUNDUP
NATIONAL WEATHER SERVICE MEMPHIS TN
800 PM CDT MON MAY 25 2015

TNZ002-004-019-021-049-052-054-088>092-260200-
WEST TENNESSEE

CITY           SKY/WX    TMP DP  RH WIND       PRES   REMARKS
MEMPHIS INTL   MOCLDY    80  70  71 SE9       30.01R
NWS MEMPHIS      N/A     78 N/A N/A MISG        N/A
JACKSON        MOCLDY    74  68  81 S6        30.04R
DYERSBURG      CLOUDY    75  57  53 SE7       30.03R
PARIS          PTCLDY    70  66  88 SE6       30.06S
LEXINGTON      MOCLDY    72  66  83 SE5       30.06S
$$

TNZ008-025-027-028-033-062-065-066-260200-
NORTH MIDDLE TENNESSEE

CITY           SKY/WX    TMP DP  RH WIND       PRES   REMARKS
NASHVILLE      MOCLDY    70  67  90 S6        30.11S
CLARKSVILLE    MOCLDY    70  68  93 S6        30.07R
COOKEVILLE     CLEAR     66  66 100 CALM      30.13F
CROSSVILLE     CLOUDY    67  63  87 S6        30.18F
$$

TNZ061-075-076-078-094-096-097-260200-
SOUTH MIDDLE TENNESSEE

CITY           SKY/WX    TMP DP  RH WIND       PRES   REMARKS
FAYETTEVILLE   CLEAR    N/A N/A N/A MISG      30.12S
TULLAHOMA      PTCLDY    68  64  88 S3        30.14S
WINCHESTER     PTCLDY    70  64  83 S9        30.14S
COLUMBIA       CLEAR     70  66  88 CALM      30.09R
SHELBYVILLE    CLEAR     68  66  94 CALM      30.13R
$$

TNZ017-018-042-046-047-260200-
NORTHEAST TENNESSEE

CITY           SKY/WX    TMP DP  RH WIND       PRES   REMARKS
TRI CITIES     CLOUDY    79  58  48 VRB5      30.20S
ELIZABETHTON   CLEAR     72  57  60 NE3       30.22S
$$

TNZ012-013-036-069-073-074-260200-
CENTRAL EAST TENNESSEE

CITY           SKY/WX    TMP DP  RH WIND       PRES   REMARKS
KNOXVILLE      CLOUDY    79  61  53 SW8       30.17R
OAK RIDGE      LGT RAIN  74  65  73 W10       30.21R
GATLINBURG     PTCLDY    75  63  64 CALM      30.16S
$$

TNZ083-085-099-260200-
SOUTHEAST TENNESSEE

CITY           SKY/WX    TMP DP  RH WIND       PRES   REMARKS
CHATTANOOGA    LGT RAIN  68  66  93 E5        30.18F FOG
$$

SKY/WX REPORTED AS FAIR MEANS FEW OR NO CLOUDS BELOW
12 THOUSAND FEET.




USA.gov is the U.S. government's official web portal to all federal, state and local government web resources and services.